Simultaneous Nadir Overpasses (SNOs) Predictions

Prediction of SNOs between TERRA and METOP-C Satellite Orbit:

Table of predicted SNOs for the next 14.0 days since TLE Epoch: 4/10/2021
Index Date (TERRA) Time (TERRA) Lat,Lon (TERRA) SZA (TERRA ) Date (METOP-C) Time (METOP-C) Lat,Lon (METOP-C) SZA (METOP-C ) Distance(km) Time Diff (sec)
1 04/11/2021 13:21:00 81.29, 25.93 75.45 04/11/2021 13:20:42 81.29, 25.93 75.44 0.17 18
2 04/11/2021 14:10:26 -81.31,-166.16 104.53 04/11/2021 14:11:21 -81.30,-166.34 104.53 3.29 55
3 04/14/2021 08:55:14 81.28, 92.20 74.43 04/14/2021 08:55:05 81.29, 92.15 74.42 1.05 9
4 04/14/2021 09:44:40 -81.30, -99.86 105.54 04/14/2021 09:45:43 -81.30, -99.73 105.50 2.18 63
5 04/17/2021 03:40:17 -80.87, -15.01 107.48 04/17/2021 03:39:03 -81.10, -15.68 107.41 27.25 74
6 04/17/2021 04:29:26 81.29, 158.81 73.48 04/17/2021 04:29:26 81.29, 158.73 73.47 1.32 0
7 04/17/2021 05:18:53 -81.29, -33.61 106.54 04/17/2021 05:20:05 -81.30, -33.53 106.50 1.56 72
8 04/19/2021 23:14:14 -81.28, 57.32 107.51 04/19/2021 23:13:08 -81.28, 57.38 107.53 1.24 66
9 04/20/2021 00:03:39 81.30,-134.62 72.55 04/20/2021 00:03:48 81.29,-134.71 72.54 1.60 9
10 04/22/2021 18:48:27 -81.28, 123.88 108.42 04/22/2021 18:47:30 -81.29, 123.94 108.44 1.18 57



Historial Predications of SNOs between TERRA and METOP-C
